Weather History for Monticello, IA

Change the Weather History Date:

Wednesday, April 2, 2014

  Actual Average Record
Temperature  
Mean Temperature 38 °F -  
Max Temperature 51 °F 52 °F 82 °F (2003)
Min Temperature 26 °F 34 °F 23 °F (2013)
Degree Days  
Heating Degree Days 26    
Moisture  
Dew Point 29 °F    
Average Humidity 65    
Maximum Humidity 100    
Minimum Humidity 38    
Precipitation  
Precipitation 0.00 in - - ()
Sea Level Pressure  
Sea Level Pressure 30.06 in    
Wind  
Wind Speed 8 mph (ENE)    
Max Wind Speed 20 mph    
Max Gust Speed 28 mph    
Visibility 10 miles    
Events Rain    
Averages and records for this station are not official NWS values.
T = Trace of Precipitation, MM = Missing Value Source: NWS Daily Summary

Daily Weather History Graph

Daily Weather History Graph

Search for Another Location

Airport:

Trip Planner

Search our weather history database for the weather conditions in past years. The results will help you decide how hot, cold, wet, or windy it might be!

Date:

Astronomy

Apr. 02, 2014 Rise Set
Actual Time 6:45 AM CDT 7:31 PM CDT
Civil Twilight 6:17 AM CDT 7:59 PM CDT
Nautical Twilight 5:43 AM CDT 8:33 PM CDT
Astronomical Twilight 5:08 AM CDT 9:08 PM CDT
Moon 8:27 AM CDT (4/2) 10:58 PM CDT (4/2)
Length of Visible Light 13h 42m
Length of Day
12h 46m
Waxing Crescent, 10% of the Moon is Illuminated
Apr 2
Waxing Crescent
Apr 7
First Quarter
Apr 15
Full
Apr 22
Last Quarter
Apr 29
New

Hourly Weather History & Observations

Time (CDT) Temp. Windchill Dew Point Humidity Pressure Visibility Wind Dir Wind Speed Gust Speed Precip Events Conditions
12:15 AM 37.4 °F 31.4 °F 32.0 °F 81% 30.08 in 8.0 mi North 8.1 mph - N/A Rain Light Rain
12:35 AM 37.4 °F 33.8 °F 32.0 °F 81% 30.08 in 9.0 mi North 4.6 mph - N/A Rain Light Rain
1:15 AM 35.6 °F 29.9 °F 32.0 °F 87% 30.08 in 10.0 mi North 6.9 mph - N/A   Overcast
1:35 AM 35.6 °F 32.8 °F 32.0 °F 87% 30.08 in 10.0 mi North 3.5 mph - N/A   Overcast
1:55 AM 33.8 °F - 30.2 °F 87% 30.10 in 5.0 mi Calm Calm - N/A   Overcast
2:15 AM 33.8 °F 29.6 °F 30.2 °F 87% 30.08 in 8.0 mi NNE 4.6 mph - N/A   Mostly Cloudy
2:35 AM 32.0 °F - 30.2 °F 93% 30.09 in 9.0 mi Calm Calm - N/A   Partly Cloudy
2:55 AM 33.8 °F 29.6 °F 30.2 °F 87% 30.10 in 10.0 mi NE 4.6 mph - N/A   Clear
3:15 AM 30.2 °F - 28.4 °F 93% 30.10 in 9.0 mi Calm Calm - N/A   Clear
3:35 AM 32.0 °F - 28.4 °F 87% 30.10 in 10.0 mi Calm Calm - N/A   Clear
3:55 AM 30.2 °F 25.4 °F 28.4 °F 93% 30.09 in 10.0 mi North 4.6 mph - N/A   Clear
4:10 AM 30.2 °F 25.4 °F 28.4 °F 93% 30.10 in 10.0 mi North 4.6 mph - N/A   Clear
4:35 AM 30.2 °F - 28.4 °F 93% 30.10 in 10.0 mi Calm Calm - N/A   Clear
4:55 AM 28.4 °F - 26.6 °F 93% 30.10 in 10.0 mi Calm Calm - N/A   Clear
5:15 AM 26.6 °F - 26.6 °F 100% 30.10 in 8.0 mi Calm Calm - N/A   Clear
5:35 AM 28.4 °F - 26.6 °F 93% 30.12 in 8.0 mi Calm Calm - N/A   Clear
5:55 AM 28.4 °F 24.6 °F 28.4 °F 100% 30.12 in 10.0 mi North 3.5 mph - N/A   Clear
6:15 AM 28.4 °F 23.3 °F 26.6 °F 93% 30.13 in 9.0 mi North 4.6 mph - N/A   Clear
7:35 AM 30.2 °F 24.3 °F 28.4 °F 93% 30.15 in 10.0 mi NNE 5.8 mph - N/A   Clear
7:55 AM 32.0 °F - 28.4 °F 87% 30.16 in 10.0 mi Calm Calm 11.5 mph N/A   Clear
8:15 AM 32.0 °F 25.6 °F 28.4 °F 87% 30.16 in 10.0 mi NE 6.9 mph - N/A   Clear
8:35 AM 32.0 °F 24.8 °F 28.4 °F 87% 30.15 in 10.0 mi ENE 8.1 mph - N/A   Clear
8:55 AM 33.8 °F 25.8 °F 28.4 °F 81% 30.14 in 10.0 mi ENE 10.4 mph - N/A   Clear
9:15 AM 35.6 °F 27.5 °F 28.4 °F 75% 30.12 in 10.0 mi ENE 11.5 mph - N/A   Clear
9:35 AM 35.6 °F 25.9 °F 28.4 °F 75% 30.11 in 10.0 mi ENE 16.1 mph - N/A   Clear
9:55 AM 37.4 °F 29.8 °F 28.4 °F 70% 30.13 in 10.0 mi East 11.5 mph 18.4 mph N/A   Clear
10:15 AM 39.2 °F 33.0 °F 28.4 °F 65% 30.13 in 10.0 mi NE 9.2 mph 15.0 mph N/A   Clear
10:35 AM 41.0 °F 34.3 °F 28.4 °F 61% 30.13 in 10.0 mi ENE 11.5 mph - N/A   Clear
10:55 AM 42.8 °F 37.0 °F 28.4 °F 57% 30.13 in 10.0 mi NE 10.4 mph 16.1 mph N/A   Clear
11:35 AM 44.6 °F 38.1 °F 28.4 °F 53% 30.12 in 10.0 mi NE 13.8 mph - N/A   Clear
11:55 AM 44.6 °F 38.1 °F 28.4 °F 53% 30.11 in 10.0 mi ENE 13.8 mph - N/A   Clear
12:15 PM 46.4 °F 41.1 °F 28.4 °F 50% 30.10 in 10.0 mi ENE 11.5 mph 19.6 mph N/A   Clear
12:55 PM 48.2 °F - 28.4 °F 46% 30.08 in 10.0 mi ENE 12.7 mph - N/A   Clear
1:15 PM 50.0 °F - 28.4 °F 43% 30.08 in 10.0 mi ENE 11.5 mph 21.9 mph N/A   Clear
1:35 PM 50.0 °F - 28.4 °F 43% 30.07 in 10.0 mi East 11.5 mph 19.6 mph N/A   Clear
1:55 PM 50.0 °F - 28.4 °F 43% 30.06 in 10.0 mi East 15.0 mph - N/A   Clear
2:35 PM 51.8 °F - 28.4 °F 41% 30.05 in - East 12.7 mph 20.7 mph N/A   Mostly Cloudy
2:55 PM 51.8 °F - 26.6 °F 38% 30.04 in 10.0 mi East 10.4 mph 20.7 mph N/A   Overcast
3:15 PM 51.8 °F - 26.6 °F 38% 30.03 in 10.0 mi East 11.5 mph 19.6 mph N/A   Overcast
3:35 PM 51.8 °F - 26.6 °F 38% 30.02 in 10.0 mi ESE 15.0 mph - N/A   Overcast
3:55 PM 51.8 °F - 28.4 °F 41% 30.01 in 10.0 mi East 13.8 mph - N/A   Overcast
4:15 PM 51.8 °F - 26.6 °F 38% 30.01 in 10.0 mi East 15.0 mph 20.7 mph N/A   Overcast
4:35 PM 51.8 °F - 28.4 °F 41% 30.01 in 10.0 mi East 15.0 mph - N/A   Overcast
4:55 PM 51.8 °F - 26.6 °F 38% 30.00 in 10.0 mi East 13.8 mph - N/A   Overcast
5:15 PM 51.8 °F - 26.6 °F 38% 30.00 in 10.0 mi East 13.8 mph - N/A   Overcast
5:35 PM 51.8 °F - 26.6 °F 38% 30.00 in 10.0 mi East 12.7 mph - N/A   Overcast
5:55 PM 50.0 °F - 26.6 °F 40% 30.01 in 10.0 mi East 9.2 mph 17.3 mph N/A   Overcast
6:15 PM 50.0 °F - 26.6 °F 40% 30.00 in 10.0 mi East 9.2 mph 16.1 mph N/A   Overcast
6:35 PM 50.0 °F - 28.4 °F 43% 30.01 in 10.0 mi East 8.1 mph - N/A   Overcast
6:55 PM 46.4 °F 42.9 °F 32.0 °F 57% 30.00 in 6.0 mi ENE 6.9 mph - N/A Rain Light Rain
7:15 PM 46.4 °F 41.5 °F 33.8 °F 62% 29.99 in 10.0 mi ENE 10.4 mph - N/A   Overcast
7:35 PM 46.4 °F 41.5 °F 33.8 °F 62% 29.98 in 10.0 mi ENE 10.4 mph - N/A   Overcast
7:55 PM 46.4 °F 40.7 °F 32.0 °F 57% 29.97 in 10.0 mi East 12.7 mph 19.6 mph N/A   Overcast
8:15 PM 46.4 °F 41.5 °F 32.0 °F 57% 29.98 in 10.0 mi ENE 10.4 mph - N/A   Overcast
8:35 PM 46.4 °F 40.4 °F 32.0 °F 57% 29.98 in 10.0 mi ENE 13.8 mph - N/A   Overcast
8:55 PM 46.4 °F 40.7 °F 32.0 °F 57% 29.98 in 10.0 mi East 12.7 mph - N/A   Overcast
9:15 PM 46.4 °F 41.1 °F 32.0 °F 57% 29.98 in 10.0 mi ENE 11.5 mph 18.4 mph N/A   Overcast
9:35 PM 46.4 °F 39.0 °F 26.6 °F 46% 29.98 in 10.0 mi East 19.6 mph 27.6 mph N/A   Overcast
9:55 PM 46.4 °F 40.1 °F 26.6 °F 46% 29.98 in 10.0 mi East 15.0 mph 26.5 mph N/A   Overcast
10:15 PM 46.4 °F 40.7 °F 26.6 °F 46% 30.00 in 10.0 mi East 12.7 mph 23.0 mph N/A   Overcast
10:35 PM 44.6 °F 38.1 °F 26.6 °F 49% 29.97 in 10.0 mi ENE 13.8 mph 20.7 mph N/A   Overcast
10:55 PM 44.6 °F 37.8 °F 26.6 °F 49% 29.97 in 10.0 mi East 15.0 mph 23.0 mph N/A   Overcast
11:15 PM 42.8 °F 35.4 °F 26.6 °F 53% 29.97 in 10.0 mi East 15.0 mph 23.0 mph N/A   Overcast
11:35 PM 41.0 °F 33.5 °F 28.4 °F 61% 29.98 in 7.0 mi East 13.8 mph - N/A   Overcast
11:55 PM 39.2 °F 35.0 °F 32.0 °F 75% 29.99 in - East 5.8 mph - N/A   Overcast